This demonstration page uses our WeatherBlox Daily Observations layout. Learn more.

Left ArrowRight Arrow

40.92945, -100.16068

Hourly Observations for May 20, 2022

Temp ( °F °C ) Dew Point ( °F °C ) Humidity (%) Winds ( mph kmh ) Pressure ( in mb ) Visibility ( mi km ) Precip ( " mm )
12:15 am 00:15 Clear 51 10.5 37 2.7 59 59 N 21 33 29.55 1001 10 16 0.00 0.00
12:30 am 00:30 Clear 50 10.2 37 2.6 60 60 N 18 30 29.55 1001 10 16 0.00 0.00
12:55 am 00:55 Clear 50 10.1 36 2 57 57 N 23 37 29.54 1000 10 16 0.00 0.00
1:15 am 01:15 Clear 50 9.9 35 1.8 57 57 N 21 33 29.53 1000 10 16 0.00 0.00
1:35 am 01:35 Partly Cloudy 49 9.7 35 1.9 59 59 N 16 26 29.54 1000 10 16 0.00 0.00
1:55 am 01:55 Cloudy 50 10 36 2.1 58 58 N 15 24 29.54 1000 10 16 0.00 0.00
2:15 am 02:15 Cloudy 50 10.1 36 2.1 58 58 N 16 26 29.54 1000 10 16 0.00 0.00
2:35 am 02:35 Cloudy 50 10.2 36 2.1 57 57 N 15 24 29.53 1000 10 16 0.00 0.00
2:55 am 02:55 Cloudy 51 10.3 36 2 57 57 N 14 22 29.54 1000 10 16 0.00 0.00
3:15 am 03:15 Cloudy 51 10.3 36 2.2 58 58 N 15 24 29.55 1001 10 16 0.00 0.00
3:35 am 03:35 Cloudy 50 10 37 2.5 60 60 NNW 14 22 29.56 1001 10 16 0.00 0.00
3:55 am 03:55 Cloudy 50 10 36 2.4 60 60 N 10 17 29.57 1001 10 16 0.00 0.00
4:15 am 04:15 Cloudy 50 9.8 37 2.7 62 62 NNW 13 20 29.56 1001 10 16 0.00 0.00
4:35 am 04:35 Cloudy 49 9.6 37 2.5 62 62 NNW 14 22 29.57 1002 10 16 0.00 0.00
4:55 am 04:55 Cloudy 49 9.5 37 2.9 64 64 NW 13 20 29.60 1002 10 16 0.00 0.00
5:15 am 05:15 Cloudy 49 9.5 37 3 64 64 NW 9 15 29.61 1003 10 16 0.00 0.00
5:35 am 05:35 Cloudy 49 9.2 38 3.3 67 67 NNW 8 13 29.60 1002 10 16 0.00 0.00
5:55 am 05:55 Cloudy 49 9.2 38 3.4 67 67 NNW 8 13 29.62 1003 10 16 0.00 0.00
6:15 am 06:15 Cloudy 49 9.2 38 3.3 67 67 NW 8 13 29.62 1003 10 16 0.00 0.00
6:35 am 06:35 Cloudy 49 9.5 38 3.2 65 65 NW 8 13 29.63 1003 10 16 0.00 0.00
6:55 am 06:55 Cloudy 49 9.4 38 3.5 67 67 NW 10 17 29.62 1003 10 16 0.00 0.00
7:15 am 07:15 Cloudy 49 9.5 38 3.6 67 67 NW 8 13 29.64 1004 10 16 0.00 0.00
7:35 am 07:35 Cloudy 49 9.7 39 4.1 68 68 WNW 9 15 29.65 1004 10 16 0.00 0.00
7:55 am 07:55 Cloudy 50 10 39 4.1 67 67 WNW 8 13 29.66 1004 10 16 0.00 0.00
8:15 am 08:15 Cloudy 51 10.3 40 4.2 66 66 WNW 9 15 29.67 1005 10 16 0.00 0.00
8:35 am 08:35 Cloudy 51 10.7 40 4.2 64 64 WNW 9 15 29.66 1005 10 16 0.00 0.00
8:55 am 08:55 Cloudy 52 11.1 39 4.1 62 62 WNW 12 19 29.66 1004 10 16 0.00 0.00
9:15 am 09:15 Cloudy 53 11.9 39 4 59 59 WNW 13 20 29.66 1005 10 16 0.00 0.00
9:35 am 09:35 Cloudy 55 12.9 37 2.5 50 50 NW 14 22 29.65 1004 10 16 0.00 0.00
9:55 am 09:55 Cloudy 56 13.5 33 0.8 42 42 NW 17 28 29.67 1005 10 16 0.00 0.00
10:15 am 10:15 Cloudy 56 13.4 35 1.4 44 44 NW 20 31 29.67 1005 10 16 0.00 0.00
10:35 am 10:35 Cloudy 56 13.5 36 2.1 46 46 NW 17 28 29.68 1005 10 16 0.00 0.00
10:55 am 10:55 Mostly Cloudy 56 13.6 35 1.5 44 44 NW 22 35 29.68 1005 10 16 0.00 0.00
11:15 am 11:15 Mostly Cloudy 57 14.1 35 1.5 43 43 NNW 20 31 29.67 1005 10 16 0.00 0.00
11:35 am 11:35 Mostly Cloudy 58 14.3 35 1.7 43 43 NW 21 33 29.69 1005 10 16 0.00 0.00
11:55 am 11:55 Partly Cloudy 58 14.6 35 1.5 41 41 NW 20 31 29.67 1005 10 16 0.00 0.00
12:15 pm 12:15 Partly Cloudy 59 14.8 36 2.1 43 43 NW 18 30 29.69 1005 10 16 0.00 0.00
12:35 pm 12:35 Partly Cloudy 59 15.2 34 1.3 39 39 NW 22 35 29.68 1005 10 16 0.00 0.00
12:55 pm 12:55 Partly Cloudy 60 15.5 33 0.7 37 37 NW 18 30 29.69 1005 10 16 0.00 0.00
1:15 pm 13:15 Mostly Cloudy 59 15.2 32 0 36 36 NW 18 30 29.70 1006 10 16 0.00 0.00
1:35 pm 13:35 Partly Cloudy 59 15.1 31 -0.6 34 34 NW 23 37 29.71 1006 10 16 0.00 0.00
1:55 pm 13:55 Mostly Cloudy 59 15.1 31 -0.4 35 35 NW 22 35 29.72 1006 10 16 0.00 0.00
2:15 pm 14:15 Mostly Cloudy 59 15.2 33 0.4 37 37 NW 17 28 29.71 1006 10 16 0.00 0.00
2:35 pm 14:35 Mostly Cloudy 59 15.2 32 0.1 36 36 NW 21 33 29.71 1006 10 16 0.00 0.00
2:55 pm 14:55 Partly Cloudy 60 15.3 33 0.6 37 37 NW 18 30 29.72 1007 10 16 0.00 0.00
3:15 pm 15:15 Partly Cloudy 59 14.8 33 0.4 38 38 NW 22 35 29.74 1007 10 16 0.00 0.00
3:35 pm 15:35 Mostly Cloudy 58 14.6 32 -0.1 37 37 NW 22 35 29.75 1007 10 16 0.00 0.00
3:55 pm 15:55 Mostly Cloudy 58 14.2 31 -0.3 37 37 NW 21 33 29.76 1008 10 16 0.00 0.00
4:15 pm 16:15 Mostly Cloudy 58 14.3 33 0.5 39 39 NW 22 35 29.77 1008 10 16 0.00 0.00
4:35 pm 16:35 Mostly Cloudy 57 14 33 0.3 39 39 NW 20 31 29.79 1009 10 16 0.00 0.00
4:55 pm 16:55 Mostly Cloudy 57 14 31 -0.7 37 37 NNW 23 37 29.79 1009 10 16 0.00 0.00
5:15 pm 17:15 Cloudy 57 13.8 31 -0.7 37 37 NW 20 31 29.80 1009 10 16 0.00 0.00
5:35 pm 17:35 Cloudy 56 13.3 29 -1.9 35 35 NW 17 28 29.82 1010 10 16 0.00 0.00
5:55 pm 17:55 Cloudy 56 13.2 29 -1.6 36 36 NW 21 33 29.82 1010 10 16 0.00 0.00
6:15 pm 18:15 Cloudy 55 12.9 29 -1.6 37 37 NW 21 33 29.83 1010 10 16 0.00 0.00
6:35 pm 18:35 Partly Cloudy 55 12.7 28 -2.2 36 36 NW 24 39 29.86 1011 10 16 0.00 0.00
6:55 pm 18:55 Sunny 54 12.3 30 -1.3 39 39 NW 14 22 29.87 1012 10 16 0.00 0.00
7:15 pm 19:15 Sunny 54 12.2 30 -1.2 40 40 NW 10 17 29.87 1012 10 16 0.00 0.00
7:35 pm 19:35 Sunny 54 12.1 32 0.2 44 44 N 13 20 29.88 1012 10 16 0.00 0.00
7:55 pm 19:55 Partly Cloudy 53 11.7 32 0 45 45 N 17 28 29.90 1012 10 16 0.00 0.00
8:15 pm 20:15 Sunny 53 11.5 32 0 45 45 N 13 20 29.92 1013 10 16 0.00 0.00
8:35 pm 20:35 Sunny 52 11.2 32 0 46 46 N 14 22 29.93 1014 10 16 0.00 0.00
8:55 pm 20:55 Clear 52 11 31 -0.4 46 46 N 14 22 29.95 1014 10 16 0.00 0.00
9:15 pm 21:15 Clear 51 10.6 32 -0.1 48 48 N 12 19 29.97 1015 10 16 0.00 0.00
9:35 pm 21:35 Clear 51 10.4 32 0 49 49 N 13 20 29.99 1015 10 16 0.00 0.00
9:55 pm 21:55 Clear 50 10 33 0.3 51 51 N 14 22 30.01 1016 10 16 0.00 0.00
10:15 pm 22:15 Clear 50 9.8 33 0.5 53 53 N 13 20 30.01 1016 10 16 0.00 0.00
10:35 pm 22:35 Clear 49 9.7 33 0.5 53 53 N 14 22 30.03 1017 10 16 0.00 0.00
10:55 pm 22:55 Partly Cloudy 49 9.5 33 0.6 54 54 N 14 22 30.03 1017 10 16 0.00 0.00
11:15 pm 23:15 Clear 49 9.3 33 0.5 54 54 N 14 22 30.04 1017 10 16 0.00 0.00
11:35 pm 23:35 Clear 48 9 33 0.6 56 56 N 16 26 30.04 1017 10 16 0.00 0.00
11:55 pm 23:55 Clear 48 8.8 33 0.7 57 57 N 12 19 30.05 1018 10 16 0.00 0.00

Powered by AerisWeather